Weather History for Needles, CA

Change the Weather History Date:

Friday, March 23, 2012

  Actual Average Record
Temperature  
Mean Temperature 74 °F -  
Max Temperature 87 °F 80 °F 94 °F (1990)
Min Temperature 61 °F 51 °F 40 °F (1952)
Cooling Degree Days 8    
Growing Degree Days 24 (Base 50)    
Moisture  
Dew Point 28 °F    
Average Humidity 19    
Maximum Humidity 30    
Minimum Humidity 12    
Precipitation  
Precipitation 0.00 in - - ()
Sea Level Pressure  
Sea Level Pressure 29.83 in    
Wind  
Wind Speed 6 mph (SW)    
Max Wind Speed 22 mph    
Max Gust Speed 29 mph    
Visibility 10 miles    
Events      
Averages and records for this station are not official NWS values.
T = Trace of Precipitation, MM = Missing Value Source: NWS Daily Summary

Daily Weather History Graph

Daily Weather History Graph

Search for Another Location

Airport:

Trip Planner

Search our weather history database for the weather conditions in past years. The results will help you decide how hot, cold, wet, or windy it might be!

Date:

Astronomy

Mar. 23, 2012 Rise Set
Actual Time 6:37 AM PDT 6:53 PM PDT
Civil Twilight 6:11 AM PDT 7:18 PM PDT
Nautical Twilight 5:42 AM PDT 7:47 PM PDT
Astronomical Twilight 5:12 AM PDT 8:17 PM PDT
Moon 6:52 AM PDT (3/23) 8:13 PM PDT (3/23)
Length of Visible Light 13h 06m
Length of Day
12h 15m
New Moon, 1% of the Moon is Illuminated
Mar 23
New Moon
Mar 30
First Quarter
Apr 6
Full
Apr 13
Last Quarter
Apr 21
New

Hourly Weather History & Observations

Time (PDT) Temp. Dew Point Humidity Pressure Visibility Wind Dir Wind Speed Gust Speed Precip Events Conditions
12:56 AM 70.0 °F 28.0 °F 21% 29.78 in 10.0 mi Calm Calm - N/A   Clear
1:56 AM 66.9 °F 30.9 °F 26% 29.79 in 10.0 mi WSW 5.8 mph - N/A   Clear
2:56 AM 66.0 °F 30.0 °F 26% 29.80 in 10.0 mi West 3.5 mph - N/A   Clear
3:56 AM 66.0 °F 28.9 °F 25% 29.79 in 10.0 mi South 6.9 mph - N/A   Clear
4:56 AM 66.9 °F 28.9 °F 24% 29.81 in 10.0 mi Calm Calm - N/A   Clear
5:56 AM 64.9 °F 28.0 °F 25% 29.83 in 10.0 mi Calm Calm - N/A   Clear
6:56 AM 61.0 °F 28.9 °F 30% 29.85 in 10.0 mi Calm Calm - N/A   Clear
7:56 AM 68.0 °F 28.9 °F 23% 29.86 in 10.0 mi West 3.5 mph - N/A   Clear
8:56 AM 75.0 °F 27.0 °F 17% 29.87 in 10.0 mi SW 4.6 mph - N/A   Clear
9:56 AM 75.9 °F 25.0 °F 15% 29.88 in 10.0 mi Calm Calm - N/A   Clear
10:56 AM 81.0 °F 27.0 °F 14% 29.87 in 10.0 mi South 12.7 mph - N/A   Clear
11:56 AM 82.0 °F 27.0 °F 13% 29.86 in 10.0 mi SE 3.5 mph - N/A   Clear
12:56 PM 84.9 °F 26.1 °F 12% 29.85 in 10.0 mi SSW 21.9 mph 28.8 mph N/A   Clear
1:56 PM 84.9 °F 28.0 °F 13% 29.84 in 10.0 mi SSW 11.5 mph 20.7 mph N/A   Clear
2:56 PM 84.9 °F 28.9 °F 13% 29.82 in 10.0 mi SSW 15.0 mph 23.0 mph N/A   Clear
3:56 PM 86.0 °F 27.0 °F 12% 29.81 in 10.0 mi SSW 15.0 mph - N/A   Clear
4:56 PM 84.9 °F 28.0 °F 13% 29.79 in 10.0 mi South 10.4 mph 21.9 mph N/A   Clear
5:56 PM 84.0 °F 27.0 °F 13% 29.79 in 10.0 mi SW 15.0 mph - N/A   Clear
6:56 PM 81.0 °F 27.0 °F 14% 29.80 in 10.0 mi SW 10.4 mph - N/A   Clear
7:56 PM 78.1 °F 27.0 °F 15% 29.81 in 10.0 mi SSW 6.9 mph - N/A   Clear
8:56 PM 77.0 °F 28.9 °F 17% 29.82 in 10.0 mi SSW 6.9 mph - N/A   Clear
9:56 PM 75.0 °F 30.0 °F 19% 29.83 in 10.0 mi SW 9.2 mph - N/A   Clear
10:56 PM 71.1 °F 30.0 °F 22% 29.83 in 10.0 mi WSW 8.1 mph - N/A   Clear
11:56 PM 69.1 °F 30.0 °F 23% 29.83 in 10.0 mi WSW 9.2 mph - N/A   Clear